Location: Northam
(31.6525°S, 116.6655°E)
Time: 09:10:42
(UTC+08:00)

N. Korean satellite - Pass Details

Date: 24 May 2021
Orbit: 450 x 500 km, 97.2° (Epoch: 13 June)

Event Time Altitude Azimuth Distance (km) Brightness Sun altitude
Rises 04:46:23 0° 16° (NNE) 2,500 10.5 -28.1°
Reaches altitude 10° 04:48:24 10° 18° (NNE) 1,640 9.5 -27.6°
Enters shadow 04:48:50 13° 19° (NNE) 1,461 9.3 -27.6°
